Starlink 6048

operational
NORAD ID: 56459 Int'l Des: 2023-064 Owner: SPXS Country: US Constellation: starlink
LEOCIRCULAR

Starlink 6048について

説明を読み込み中...

リアルタイム位置

3D地球を読み込み中...

次回通過

高度履歴

Altitude vs Time

uPlot chart will show altitude changes over time

軌道要素

1 56459U 23064M 25257.53862960 -.00079844 00000-0 -65935-2 0 9998
2 56459 69.9991 228.4603 0004797 224.3782 135.6994 14.99284966128853
Epoch: Sep 14, 2025 • Age: 20 hours

現在のステータス

高度 592.3 km
速度 7.56 km/s
衛星直下点 -69.15°S, 16.07°W
打ち上げ日 May 10, 2023
運用期間 2.3 years
タイプ internet

技術仕様

分類 Payload
質量 305.00 kg
乾燥質量 290.00 kg
総質量 305.00 kg
長さ 0.20 m
直径 2.80 m
スパン 9.00 m
形状 Box + pan
製造者 SPXS
バスタイプ Starlink
フェーズステータス In Orbit
所有者/国 SPXS/US

大規模コンステレーション

Loading constellations...